When you browse on this site, cookies collect data to enhance your experience and personalize the content and advertising you see.
Visit our Privacy Policy to learn more. By continuing to use the site, you agree to this use of cookies and data.
  • In United Kingdom
  • List of Countries
  • For 7 days
  • Water Temperature
  • Weather Map
  • Weather Widgets
  • user-avatar
    Login

    Hourly Weather Hendek

    Today, 21 August, Wednesday

    Time Temperature Precipitation Wind Pressure Humidity
    00:00 +18°C° 0 mm 0 mps 746 mmHg 90%
    01:00 +20°C° 0 mm 1 mps 746 mmHg 89%
    02:00 +20°C° 0 mm 1 mps 746 mmHg 89%
    03:00 +20°C° 0 mm 1 mps 746 mmHg 89%
    04:00 +20°C° 0 mm 1 mps 746 mmHg 88%
    05:00 +20°C° 0 mm 1 mps 745 mmHg 88%
    06:00 +21°C° 0.4 mm 1 mps 746 mmHg 88%
    07:00 +21°C° 0.4 mm 1 mps 746 mmHg 87%
    08:00 +22°C° 0.4 mm 1 mps 746 mmHg 87%
    09:00 +21°C° 0.2 mm 2 mps 746 mmHg 87%
    10:00 +23°C° 0.2 mm 2 mps 745 mmHg 87%
    11:00 +23°C° 0.2 mm 2 mps 745 mmHg 87%
    12:00 +25°C° 0.6 mm 2 mps 745 mmHg 84%
    13:00 +26°C° 0.6 mm 2 mps 745 mmHg 81%
    14:00 +27°C° 0.6 mm 2 mps 745 mmHg 77%
    15:00 +27°C° 1 mm 2 mps 744 mmHg 78%
    16:00 +26°C° 1 mm 2 mps 744 mmHg 79%
    17:00 +26°C° 1 mm 2 mps 744 mmHg 80%
    18:00 +25°C° 0.1 mm 1 mps 744 mmHg 85%
    19:00 +24°C° 0.1 mm 1 mps 745 mmHg 89%
    20:00 +22°C° 0.1 mm 1 mps 745 mmHg 93%
    21:00 +22°C° 0 mm 1 mps 745 mmHg 93%
    22:00 +22°C° 0 mm 1 mps 745 mmHg 93%
    23:00 +22°C° 0 mm 1 mps 745 mmHg 93%

    Tomorrow, 22 August, Thursday

    Time Temperature Precipitation Wind Pressure Humidity
    00:00 +22°C° 0 mm 1 mps 745 mmHg 93%
    01:00 +21°C° 0 mm 1 mps 745 mmHg 93%
    02:00 +21°C° 0 mm 1 mps 745 mmHg 93%
    03:00 +21°C° 0 mm 1 mps 745 mmHg 93%
    04:00 +21°C° 0 mm 1 mps 745 mmHg 93%
    05:00 +21°C° 0 mm 1 mps 745 mmHg 94%
    06:00 +22°C° 0.1 mm 1 mps 745 mmHg 90%
    07:00 +24°C° 0.1 mm 1 mps 745 mmHg 87%
    08:00 +25°C° 0.1 mm 1 mps 746 mmHg 83%
    09:00 +27°C° 0.1 mm 2 mps 746 mmHg 75%
    10:00 +28°C° 0.1 mm 2 mps 746 mmHg 67%
    11:00 +30°C° 0.1 mm 2 mps 746 mmHg 58%
    12:00 +30°C° 0.1 mm 2 mps 746 mmHg 57%
    13:00 +31°C° 0.1 mm 3 mps 746 mmHg 56%
    14:00 +32°C° 0.1 mm 4 mps 745 mmHg 56%
    15:00 +30°C° 0 mm 4 mps 745 mmHg 61%
    16:00 +29°C° 0 mm 3 mps 745 mmHg 66%
    17:00 +28°C° 0 mm 3 mps 745 mmHg 71%
    18:00 +26°C° 0 mm 3 mps 745 mmHg 79%
    19:00 +25°C° 0 mm 2 mps 746 mmHg 87%
    20:00 +23°C° 0 mm 1 mps 746 mmHg 96%
    21:00 +23°C° 0 mm 1 mps 746 mmHg 96%
    22:00 +23°C° 0 mm 1 mps 746 mmHg 96%
    23:00 +22°C° 0 mm 1 mps 746 mmHg 96%

    Day after tomorrow, 23 August, Friday

    Time Temperature Precipitation Wind Pressure Humidity
    00:00 +22°C° 0 mm 1 mps 746 mmHg 96%
    01:00 +22°C° 0 mm 1 mps 746 mmHg 96%
    02:00 +22°C° 0 mm 1 mps 746 mmHg 96%
    03:00 +22°C° 0 mm 1 mps 746 mmHg 95%
    04:00 +22°C° 0 mm 1 mps 746 mmHg 95%
    05:00 +21°C° 0 mm 1 mps 746 mmHg 95%
    06:00 +23°C° 0 mm 1 mps 746 mmHg 89%
    07:00 +24°C° 0 mm 1 mps 746 mmHg 84%
    08:00 +26°C° 0 mm 1 mps 746 mmHg 78%
    09:00 +27°C° 0 mm 2 mps 746 mmHg 71%
    10:00 +29°C° 0 mm 2 mps 746 mmHg 64%
    11:00 +30°C° 0 mm 2 mps 746 mmHg 56%
    12:00 +31°C° 0 mm 3 mps 746 mmHg 55%
    13:00 +31°C° 0 mm 3 mps 746 mmHg 55%
    14:00 +32°C° 0 mm 4 mps 746 mmHg 54%
    15:00 +30°C° 0 mm 4 mps 745 mmHg 58%
    16:00 +29°C° 0 mm 3 mps 745 mmHg 63%
    17:00 +28°C° 0 mm 3 mps 745 mmHg 67%
    18:00 +27°C° 0 mm 2 mps 745 mmHg 76%
    19:00 +25°C° 0 mm 2 mps 746 mmHg 85%
    20:00 +23°C° 0 mm 1 mps 746 mmHg 93%
    21:00 +23°C° 0 mm 1 mps 746 mmHg 92%
    22:00 +23°C° 0 mm 1 mps 746 mmHg 92%
    23:00 +20°C° 0 mm 0 mps 746 mmHg 91%

    24 August, Saturday

    Time Temperature Precipitation Wind Pressure Humidity
    00:00 +20°C° 0 mm 0 mps 746 mmHg 90%
    01:00 +20°C° 0 mm 0 mps 745 mmHg 89%
    02:00 +20°C° 0 mm 0 mps 745 mmHg 88%
    03:00 +19°C° 0 mm 0 mps 745 mmHg 88%
    04:00 +21°C° 0 mm 1 mps 745 mmHg 88%
    05:00 +21°C° 0 mm 1 mps 745 mmHg 88%
    06:00 +23°C° 0 mm 1 mps 746 mmHg 81%
    07:00 +25°C° 0 mm 1 mps 746 mmHg 75%
    08:00 +26°C° 0 mm 1 mps 746 mmHg 68%
    09:00 +28°C° 0 mm 1 mps 746 mmHg 61%
    10:00 +30°C° 0 mm 2 mps 746 mmHg 53%
    11:00 +32°C° 0 mm 2 mps 746 mmHg 46%
    12:00 +33°C° 0 mm 3 mps 746 mmHg 46%
    13:00 +33°C° 0 mm 4 mps 745 mmHg 47%
    14:00 +33°C° 0 mm 4 mps 745 mmHg 47%
    15:00 +32°C° 0 mm 4 mps 745 mmHg 53%
    16:00 +30°C° 0 mm 4 mps 745 mmHg 58%
    17:00 +29°C° 0 mm 3 mps 745 mmHg 64%
    18:00 +27°C° 0 mm 3 mps 745 mmHg 74%
    19:00 +25°C° 0 mm 2 mps 745 mmHg 84%
    20:00 +23°C° 0 mm 1 mps 745 mmHg 94%
    21:00 +23°C° 0 mm 1 mps 745 mmHg 93%
    22:00 +23°C° 0 mm 1 mps 745 mmHg 93%
    23:00 +21°C° 0 mm 0 mps 745 mmHg 92%

    25 August, Sunday

    Time Temperature Precipitation Wind Pressure Humidity
    00:00 +21°C° 0 mm 0 mps 745 mmHg 91%
    01:00 +20°C° 0 mm 0 mps 744 mmHg 90%
    02:00 +20°C° 0 mm 0 mps 744 mmHg 89%
    03:00 +20°C° 0 mm 0 mps 744 mmHg 89%
    04:00 +20°C° 0 mm 0 mps 744 mmHg 88%
    05:00 +20°C° 0 mm 0 mps 744 mmHg 88%
    06:00 +22°C° 0 mm 0 mps 744 mmHg 82%
    07:00 +23°C° 0 mm 0 mps 744 mmHg 77%
    08:00 +24°C° 0 mm 0 mps 744 mmHg 71%
    09:00 +28°C° 0 mm 1 mps 744 mmHg 65%
    10:00 +30°C° 0 mm 1 mps 744 mmHg 59%
    11:00 +31°C° 0 mm 1 mps 744 mmHg 52%
    12:00 +32°C° 0 mm 2 mps 744 mmHg 52%
    13:00 +33°C° 0 mm 3 mps 744 mmHg 51%
    14:00 +33°C° 0 mm 3 mps 743 mmHg 51%
    15:00 +31°C° 0 mm 3 mps 743 mmHg 56%
    16:00 +30°C° 0 mm 3 mps 743 mmHg 60%
    17:00 +29°C° 0 mm 3 mps 743 mmHg 65%
    18:00 +27°C° 0 mm 2 mps 743 mmHg 73%
    19:00 +25°C° 0 mm 2 mps 743 mmHg 82%
    20:00 +24°C° 0 mm 1 mps 743 mmHg 91%
    21:00 +23°C° 0 mm 1 mps 743 mmHg 90%
    22:00 +23°C° 0 mm 1 mps 743 mmHg 89%
    23:00 +21°C° 0 mm 0 mps 743 mmHg 88%

    26 August, Monday

    Time Temperature Precipitation Wind Pressure Humidity
    00:00 +21°C° 0 mm 0 mps 743 mmHg 88%
    01:00 +20°C° 0 mm 0 mps 743 mmHg 88%
    02:00 +20°C° 0 mm 0 mps 743 mmHg 87%
    03:00 +20°C° 0 mm 0 mps 743 mmHg 87%
    04:00 +20°C° 0 mm 0 mps 743 mmHg 87%
    05:00 +22°C° 0 mm 1 mps 743 mmHg 87%
    06:00 +21°C° 0 mm 0 mps 744 mmHg 80%
    07:00 +23°C° 0 mm 0 mps 744 mmHg 74%
    08:00 +25°C° 0 mm 0 mps 744 mmHg 68%
    09:00 +29°C° 0 mm 1 mps 745 mmHg 61%
    10:00 +31°C° 0 mm 1 mps 745 mmHg 53%
    11:00 +32°C° 0 mm 2 mps 745 mmHg 46%
    12:00 +34°C° 0 mm 2 mps 745 mmHg 45%
    13:00 +34°C° 0 mm 3 mps 745 mmHg 44%
    14:00 +35°C° 0 mm 4 mps 744 mmHg 42%
    15:00 +34°C° 0 mm 4 mps 744 mmHg 44%
    16:00 +33°C° 0 mm 4 mps 744 mmHg 46%
    17:00 +32°C° 0 mm 4 mps 744 mmHg 48%
    18:00 +29°C° 0 mm 4 mps 744 mmHg 55%
    19:00 +27°C° 0 mm 3 mps 744 mmHg 62%
    20:00 +25°C° 0 mm 2 mps 745 mmHg 70%
    21:00 +24°C° 0 mm 2 mps 745 mmHg 72%
    22:00 +24°C° 0 mm 1 mps 745 mmHg 75%
    23:00 +23°C° 0 mm 1 mps 745 mmHg 78%
    Show more